THOR 5

Last updated on Sat Jul 05 2025 00:02:44 GMT+0000 (Coordinated Universal Time)

1 32487U 08006A 25185.56515047 .00000005 00000+0 00000+0 0 9995 2 32487 0.0128 19.5053 0002627 86.4972 19.5100 1.00271252 63839
UTC large
Height (km)
Speed (km/s)
/
Latitude / Longitude
Inclination (degrees)
Orbital Period (minutes)
Azimuth
Elevation
Range (km)
Doppler Factor

Next 0 passes for location: London (51.5072 / 0.1276)

Sorry there are no passes over London.